Location: San Vito
(41.8833°N, 12.9833°E)
Time: 10:15:34
(UTC+00:00)

Cosmos 2322 Rocket - Pass Details

Date: 17 November 2019
Orbit: 833 x 851 km, 71.0° (Epoch: 05 December)

Event Time Altitude Azimuth Distance (km) Brightness Sun altitude
Exits shadow 05:00:56 - 329° (NNW) 2,988 4.6 -11.1°
Reaches altitude 10° 05:02:20 10° 326° (NNW) 2,469 4.2 -10.8°
Maximum altitude 05:07:48 52° 252° (WSW) 1,043 2.4 -9.8°
Drops below altitude 10° 05:13:16 10° 177° (S) 2,464 4.9 -8.9°
Sets 05:15:46 0° 173° (S) 3,397 5.7 -8.4°
